"2010-10-04 00:00:00",216301,4.036,61.45,2.622,0.118,20.67,108.9819,22.28,23.16,19.73,0,111,13.14,23.11,23.5
"2010-10-04 00:00:30",216302,4.551,59.65,3.015,0.202,20.54,108.9896,22.3,23.15,20.19,0,111,13.14,23.13,21.7
"2010-10-04 00:01:00",216303,4.021,62.83,2.991,0.245,20.53,108.9854,22.29,23.16,20.28,0,111,13.14,23.12,24.8
"2010-10-04 00:01:30",216304,3.306,67.26,3.995,0.288,20.49,108.9882,22.3,23.15,20.33,0,111,13.14,23.13,29.3
"2010-10-04 00:02:00",216305,3.281,70.88,5.07,0.294,20.68,108.9916,22.3,23.13,19.57,0,111,13.14,23.13,32.9
"2010-10-04 00:02:30",216306,3.645,65.47,2.382,0.152,20.68,108.9954,22.31,23.16,18.77,0,111,13.15,23.14,27.5
"2010-10-04 00:03:00",216307,3.619,65.69,2.112,0.172,20.7,109.019,22.37,23.17,18.3,0,111,13.15,23.20,27.7
"2010-10-04 00:03:30",216308,3.798,65.64,2.771,0.178,20.56,109.0269,22.4,23.2,18.69,0,111,13.15,23.23,27.6
"2010-10-04 00:04:00",216309,4.037,61.47,2.07,0.177,20.44,109.0293,22.4,23.21,19.35,0,111,13.15,23.23,23.5
"2010-10-04 00:04:30",216310,4.039,62.79,3.791,0.293,20.42,109.0312,22.41,23.21,19.25,0,111,13.15,23.24,24.8
"2010-10-04 00:05:00",216311,3.881,65.5,6.516,0.332,20.41,109.0204,22.38,23.19,19.45,0,111,13.15,23.21,27.5
"2010-10-04 00:05:30",216312,4.022,68.01,6.384,0.3,20.42,109.0038,22.34,23.18,19.6,0,111,13.15,23.17,30.0
"2010-10-04 00:06:00",216313,4.374,70.72,5.401,0.255,20.56,109.0014,22.33,23.17,18.83,0,111,13.15,23.16,32.7
"2010-10-04 00:06:30",216314,3.909,70.65,4.847,0.26,20.56,109.0155,22.37,23.2,18.45,0,111,13.15,23.20,32.7
"2010-10-04 00:07:00",216315,4.022,66.31,2.583,0.182,20.47,109.0214,22.38,23.22,19.03,0,111,13.15,23.21,28.3
"2010-10-04 00:07:30",216316,3.902,69.57,5.537,0.145,20.5,109.013,22.36,23.23,19.02,0,111,13.14,23.19,31.6
"2010-10-04 00:08:00",216317,3.962,70.24,2.94,0.112,20.48,109.02,22.38,23.22,18.68,0,111,13.14,23.21,32.2
"2010-10-04 00:08:30",216318,3.865,64.92,2.814,0.077,20.41,109.0135,22.36,23.21,19.33,0,111,13.14,23.19,26.9
"2010-10-04 00:09:00",216319,3.55,59.46,3.483,0.134,20.24,109.0023,22.33,23.21,20.53,0,111,13.14,23.16,21.5
"2010-10-04 00:09:30",216320,3.753,58.49,3.675,0.178,20.3,108.9793,22.27,23.18,20.51,0,111,13.14,23.10,20.5
"2010-10-04 00:10:00",216321,3.939,52.3,4.356,0.132,20.18,108.9683,22.24,23.14,20.83,0,111,13.14,23.07,14.3
"2010-10-04 00:10:30",216322,3.753,50.55,2.957,0.151,20.16,108.9475,22.19,23.12,21.27,0,111,13.14,23.02,12.5
"2010-10-04 00:11:00",216323,3.763,53.1,3.346,0.093,20.16,108.9326,22.15,23.07,21.45,0,111,13.14,22.98,15.1
"2010-10-04 00:11:30",216324,3.671,50.45,1.698,0.183,20.13,108.9028,22.08,23.04,21.77,0,111,13.14,22.91,12.5
"2010-10-04 00:12:00",216325,3.765,51.62,3.218,0.237,20.18,108.8927,22.05,23,21.77,0,111,13.14,22.88,13.6
"2010-10-04 00:12:30",216326,4.217,50.54,1.826,0.134,20.22,108.8697,21.99,22.97,21.81,0,111,13.15,22.82,12.5
"2010-10-04 00:13:00",216327,3.914,51.53,1.856,0.176,20.22,108.869,21.99,22.95,21.78,0,111,13.15,22.82,13.5
"2010-10-04 00:13:30",216328,3.761,47.19,2.45,0.221,20.22,108.8685,21.99,22.91,21.98,0,111,13.15,22.82,9.2
"2010-10-04 00:14:00",216329,4.017,45.4,2.714,0.14,20.24,108.8629,21.97,22.9,21.78,0,111,13.15,22.80,7.4
"2010-10-04 00:14:30",216330,4.154,47.3,3.194,0.189,20.39,108.8595,21.97,22.88,21.43,0,111,13.15,22.79,9.3
"2010-10-04 00:15:00",216331,3.98,43.27,2.874,0.161,20.33,108.8667,21.98,22.88,21.48,0,111,13.15,22.81,5.3
"2010-10-04 00:15:30",216332,3.996,42.94,1.82,0.144,20.32,108.8479,21.94,22.87,22.05,0,111,13.15,22.76,4.9
"2010-10-04 00:16:00",216333,3.899,37.42,1.312,0.135,20.23,108.8398,21.91,22.85,22.24,0,111,13.15,22.74,359.4
"2010-10-04 00:16:30",216334,3.607,34.7,1.256,0.247,20.22,108.835,21.9,22.83,22.49,0,111,13.15,22.73,356.7
"2010-10-04 00:17:00",216335,3.424,32.89,1.475,0.252,20.23,108.8138,21.85,22.79,22.65,0,111,13.15,22.68,354.9
"2010-10-04 00:17:30",216336,4.036,35.94,2.189,0.391,20.28,108.8108,21.84,22.75,22.62,0,111,13.15,22.67,357.9
"2010-10-04 00:18:00",216337,3.84,31.81,3.8,0.417,20.24,108.7935,21.8,22.72,22.83,0,111,13.15,22.62,353.8
"2010-10-04 00:18:30",216338,3.798,31.25,2.694,0.503,20.23,108.7862,21.78,22.69,23.13,0,111,13.15,22.61,353.2
"2010-10-04 00:19:00",216339,3.47,28.29,2.523,0.255,20.2,108.7828,21.77,22.67,23.35,0,111,13.15,22.60,350.3
"2010-10-04 00:19:30",216340,3.672,25.69,1.711,0.283,20.2,108.7559,21.7,22.64,23.64,0,110.9,13.15,22.53,347.7
"2010-10-04 00:20:00",216341,3.698,25.76,1.556,0.172,20.2,108.7559,21.7,22.6,23.87,0,110.9,13.15,22.53,347.8
"2010-10-04 00:20:30",216342,3.9,24.49,1.059,0.19,20.2,108.7369,21.65,22.58,23.92,0,111,13.16,22.48,346.5
"2010-10-04 00:21:00",216343,4.4,22.84,0.907,0.182,20.19,108.7258,21.62,22.53,23.79,0,110.9,13.16,22.45,344.8
"2010-10-04 00:21:30",216344,4.729,22.31,0.984,0.104,20.16,108.7255,21.62,22.52,23.78,0,110.9,13.16,22.45,344.3
"2010-10-04 00:22:00",216345,4.851,21.29,1.146,0.144,20.08,108.7005,21.56,22.48,23.72,0,110.9,13.16,22.38,343.3
"2010-10-04 00:22:30",216346,5.012,20.69,1.298,0.103,20.09,108.693,21.54,22.46,23.7,0,110.9,13.16,22.37,342.7
"2010-10-04 00:23:00",216347,5.11,21.18,0.829,0.163,20.12,108.6875,21.52,22.44,23.78,0,110.9,13.16,22.35,343.2
"2010-10-04 00:23:30",216348,5.221,20.66,1.159,0.122,20.1,108.6688,21.48,22.41,23.94,0,110.9,13.16,22.30,342.7
"2010-10-04 00:24:00",216349,5.312,20,0.97,0.096,20.08,108.6663,21.47,22.4,24.16,0,110.9,13.16,22.30,342.0
"2010-10-04 00:24:30",216350,5.263,19.93,0.859,0.114,20.06,108.6627,21.46,22.36,24.32,0,110.9,13.15,22.29,341.9
"2010-10-04 00:25:00",216351,5.247,21.72,0.861,0.136,20.09,108.6394,21.4,22.33,24.29,0,110.9,13.15,22.23,343.7
"2010-10-04 00:25:30",216352,5.163,21.68,1,0.113,20.07,108.6341,21.39,22.31,24.27,0,110.9,13.15,22.21,343.7
"2010-10-04 00:26:00",216353,5.19,21.56,1.246,0.208,20.08,108.6341,21.39,22.3,24.34,0,110.9,13.15,22.21,343.6
"2010-10-04 00:26:30",216354,5.061,21.62,1.277,0.182,20.06,108.6315,21.38,22.26,24.3,0,110.9,13.15,22.21,343.6
"2010-10-04 00:27:00",216355,5.081,20.7,1.07,0.202,20.08,108.6152,21.34,22.26,24.36,0,110.9,13.15,22.16,342.7
"2010-10-04 00:27:30",216356,4.991,21.33,1.232,0.18,20.06,108.6068,21.32,22.24,24.34,0,110.9,13.15,22.14,343.3
"2010-10-04 00:28:00",216357,4.821,21.57,1.43,0.222,20.09,108.6006,21.3,22.22,24.31,0,110.9,13.15,22.13,343.6
"2010-10-04 00:28:30",216358,4.783,20.93,1.432,0.179,20.09,108.6003,21.3,22.23,24.3,0,110.9,13.15,22.13,342.9
"2010-10-04 00:29:00",216359,4.667,21.48,1.131,0.152,20.12,108.6003,21.3,22.21,24.29,0,110.9,13.15,22.13,343.5
"2010-10-04 00:29:30",216360,4.762,20.8,0.879,0.14,20.12,108.6003,21.3,22.2,24.3,0,110.9,13.15,22.13,342.8
"2010-10-04 00:30:00",216361,4.792,20.67,1.037,0.213,20.12,108.6003,21.3,22.19,24.33,0,110.9,13.17,22.13,342.7
"2010-10-04 00:30:30",216362,4.686,21.49,1.119,0.137,20.14,108.6003,21.3,22.18,24.26,0,110.9,13.17,22.13,343.5
"2010-10-04 00:31:00",216363,4.759,21.27,1.078,0.199,20.16,108.5986,21.3,22.17,24.22,0,110.9,13.17,22.12,343.3
"2010-10-04 00:31:30",216364,4.533,21.91,1.067,0.126,20.16,108.5953,21.29,22.17,24.19,0,110.9,13.17,22.11,343.9
"2010-10-04 00:32:00",216365,4.294,24,0.862,0.174,20.19,108.5916,21.28,22.16,24.16,0,110.9,13.17,22.10,346.0
"2010-10-04 00:32:30",216366,4.192,24.82,1.378,0.154,20.19,108.5889,21.27,22.16,24.27,0,110.9,13.17,22.10,346.8
"2010-10-04 00:33:00",216367,4.537,24.21,1.301,0.167,20.11,108.5862,21.26,22.16,24.27,0,110.9,13.17,22.09,346.2
"2010-10-04 00:33:30",216368,4.522,23.05,1.98,0.189,20.13,108.5717,21.23,22.15,24.34,0,110.9,13.17,22.05,345.0
"2010-10-04 00:34:00",216369,4.457,23.64,2.05,0.3,20.14,108.5755,21.24,22.16,24.33,0,110.9,13.17,22.06,345.6
"2010-10-04 00:34:30",216370,4.167,25.38,1.527,0.176,20.16,108.5803,21.25,22.13,24.28,0,110.9,13.17,22.07,347.4
"2010-10-04 00:35:00",216371,4.094,25.53,1.427,0.214,20.18,108.5846,21.26,22.14,24.23,0,110.9,13.17,22.09,347.5
"2010-10-04 00:35:30",216372,4.334,24.68,1.724,0.284,20.11,108.5895,21.27,22.12,24.28,0,110.9,13.17,22.10,346.7
"2010-10-04 00:36:00",216373,4.358,25.67,2.234,0.303,20.1,108.5929,21.28,22.13,24.35,0,110.9,13.17,22.11,347.7
"2010-10-04 00:36:30",216374,4.05,26.85,1.297,0.138,20.1,108.5879,21.27,22.11,24.27,0,110.9,13.17,22.09,348.9
"2010-10-04 00:37:00",216375,4.013,27.34,1.383,0.147,20.14,108.5744,21.23,22.1,24.24,0,110.9,13.17,22.06,349.3
"2010-10-04 00:37:30",216376,4.215,26.7,1.36,0.232,20.12,108.5688,21.22,22.1,24.28,0,110.9,13.18,22.05,348.7
"2010-10-04 00:38:00",216377,4.303,29.39,1.541,0.293,20.15,108.5675,21.22,22.1,24.23,0,110.9,13.17,22.04,351.4
"2010-10-04 00:38:30",216378,4.34,29.92,0.969,0.186,20.13,108.5648,21.21,22.08,24.21,0,110.9,13.18,22.03,351.9
"2010-10-04 00:39:00",216379,4.267,30.02,1.024,0.174,20.12,108.5652,21.21,22.09,24.25,0,110.9,13.18,22.04,352.0
"2010-10-04 00:39:30",216380,4.559,30.51,1.686,0.31,20.07,108.5686,21.22,22.09,24.42,0,110.9,13.17,22.04,352.5
"2010-10-04 00:40:00",216381,4.403,30.35,0.933,0.196,20.11,108.5692,21.22,22.08,24.27,0,110.9,13.18,22.05,352.4
"2010-10-04 00:40:30",216382,4.517,30.78,0.789,0.188,20.11,108.5695,21.22,22.08,24.24,0,110.9,13.18,22.05,352.8
"2010-10-04 00:41:00",216383,4.52,31,0.832,0.193,20.09,108.5675,21.22,22.07,24.3,0,110.9,13.18,22.04,353.0
"2010-10-04 00:41:30",216384,4.595,30.97,1.202,0.232,20.11,108.5633,21.21,22.07,24.24,0,110.9,13.17,22.03,353.0
"2010-10-04 00:42:00",216385,4.565,31.08,1.232,0.259,20.1,108.5585,21.19,22.05,24.11,0,110.9,13.17,22.02,353.1
"2010-10-04 00:42:30",216386,4.737,31.32,1.269,0.287,20.07,108.5464,21.16,22.05,24.04,0,110.9,13.17,21.99,353.3
"2010-10-04 00:43:00",216387,4.428,30.98,1.224,0.293,20.06,108.5369,21.14,22.03,24,0,110.9,13.17,21.96,353.0
"2010-10-04 00:43:30",216388,4.217,30.7,1.635,0.262,20.09,108.5358,21.13,22.02,24.02,0,110.9,13.17,21.96,352.7
"2010-10-04 00:44:00",216389,4.021,30.21,1.33,0.226,20.02,108.5358,21.13,22.03,24.17,0,110.9,13.17,21.96,352.2
"2010-10-04 00:44:30",216390,4.239,31.67,1.09,0.219,20.1,108.5358,21.13,22.02,24.1,0,110.9,13.17,21.96,353.7
"2010-10-04 00:45:00",216391,4.289,31.77,1.212,0.334,20.09,108.5358,21.13,22,24.15,0,110.9,13.17,21.96,353.8
"2010-10-04 00:45:30",216392,4.161,31.09,1.22,0.243,20.05,108.5318,21.12,22,24.33,0,110.9,13.17,21.95,353.1
"2010-10-04 00:46:00",216393,4.25,31.5,1.715,0.358,20.03,108.5152,21.08,21.98,24.51,0,110.9,13.17,21.91,353.5
"2010-10-04 00:46:30",216394,3.931,30.3,1.402,0.266,20.02,108.5065,21.06,21.98,24.54,0,110.9,13.18,21.88,352.3
"2010-10-04 00:47:00",216395,3.598,29.21,1.829,0.128,20.01,108.502,21.05,21.97,24.73,0,110.9,13.18,21.87,351.2
"2010-10-04 00:47:30",216396,3.654,29.55,1.709,0.164,20,108.502,21.05,21.95,25.08,0,110.9,13.19,21.87,351.5
"2010-10-04 00:48:00",216397,3.515,30.26,1.336,0.292,20.06,108.502,21.05,21.95,24.74,0,110.9,13.19,21.87,352.3
"2010-10-04 00:48:30",216398,3.871,31.52,2.017,0.433,20.15,108.5021,21.05,21.94,24.38,0,110.9,13.19,21.87,353.5
"2010-10-04 00:49:00",216399,4.984,36.26,0.922,0.181,20.05,108.5029,21.05,21.94,24.33,0,110.9,13.19,21.88,358.3
"2010-10-04 00:49:30",216400,5.007,36.27,0.36,0.134,20.01,108.5051,21.06,21.94,24.3,0,110.9,13.19,21.88,358.3
"2010-10-04 00:50:00",216401,4.904,36.03,0.616,0.189,20.06,108.5075,21.06,21.95,24.21,0,110.9,13.19,21.89,358.0
"2010-10-04 00:50:30",216402,4.223,33.61,1.174,0.205,20.01,108.5084,21.06,21.97,24.63,0,110.9,13.19,21.89,355.6
"2010-10-04 00:51:00",216403,4.245,33.4,1.383,0.335,19.98,108.5072,21.06,21.94,25.47,0,110.9,13.19,21.89,355.4
"2010-10-04 00:51:30",216404,4.718,34.64,1.539,0.385,19.98,108.4829,21,21.93,25.71,0,110.9,13.19,21.82,356.6
"2010-10-04 00:52:00",216405,4.773,35.05,0.815,0.174,19.98,108.4787,20.99,21.9,25.79,0,110.8,13.19,21.81,357.0
"2010-10-04 00:52:30",216406,4.861,35.08,1.084,0.182,19.96,108.4786,20.99,21.9,25.72,0,110.9,13.19,21.81,357.1
"2010-10-04 00:53:00",216407,4.848,35.97,0.781,0.112,19.93,108.4839,21,21.88,25.06,0,110.8,13.19,21.83,358.0
"2010-10-04 00:53:30",216408,4.786,35.92,1.271,0.191,19.95,108.4796,20.99,21.86,24.92,0,110.8,13.19,21.82,357.9
"2010-10-04 00:54:00",216409,4.716,36.02,1.487,0.302,19.95,108.4742,20.98,21.86,24.92,0,110.9,13.19,21.80,358.0
"2010-10-04 00:54:30",216410,4.773,36.69,1.038,0.19,19.95,108.4718,20.97,21.87,24.8,0,110.8,13.19,21.80,358.7
"2010-10-04 00:55:00",216411,4.695,35.55,0.783,0.154,19.94,108.4712,20.97,21.86,24.66,0,110.8,13.19,21.79,357.5
"2010-10-04 00:55:30",216412,4.773,36.55,1.81,0.158,19.95,108.4705,20.97,21.84,24.79,0,110.8,13.19,21.79,358.5
"2010-10-04 00:56:00",216413,4.973,37.61,0.953,0.09,19.92,108.47,20.97,21.85,24.81,0,110.8,13.19,21.79,359.6
"2010-10-04 00:56:30",216414,4.984,35.95,1.044,0.208,19.91,108.4663,20.96,21.85,25.08,0,110.8,13.19,21.78,358.0
"2010-10-04 00:57:00",216415,5.016,36.64,0.675,0.117,19.94,108.4693,20.96,21.83,25.08,0,110.8,13.19,21.79,358.6
"2010-10-04 00:57:30",216416,4.989,36.36,0.811,0.121,19.94,108.4705,20.97,21.82,25.12,0,110.8,13.19,21.79,358.4
"2010-10-04 00:58:00",216417,5.027,36.58,0.49,0.087,19.94,108.4711,20.97,21.81,25.16,0,110.8,13.19,21.79,358.6
"2010-10-04 00:58:30",216418,4.882,36.35,1.092,0.145,19.91,108.468,20.96,21.81,25.14,0,110.8,13.19,21.79,358.4
"2010-10-04 00:59:00",216419,4.649,35.37,0.993,0.171,19.86,108.4515,20.92,21.78,25.27,0,110.8,13.19,21.74,357.4
"2010-10-04 00:59:30",216420,4.836,36.35,1.006,0.164,19.85,108.4394,20.89,21.78,25.42,0,110.8,13.19,21.71,358.4
"2010-10-04 01:00:00",216421,4.993,37.89,0.997,0.127,19.85,108.4374,20.88,21.78,25.64,0,110.8,13.19,21.71,359.9
"2010-10-04 01:00:30",216422,4.963,39.73,0.509,0.063,19.71,108.4374,20.88,21.77,25.67,0,110.8,13.19,21.71,1.7
"2010-10-04 01:01:00",216423,4.896,40.45,0.606,0.062,19.85,108.4374,20.88,21.75,25.64,0,110.8,13.19,21.71,2.5
"2010-10-04 01:01:30",216424,4.777,42.83,0.902,0.068,20.01,108.4365,20.88,21.74,25.5,0,110.8,13.19,21.70,4.8
"2010-10-04 01:02:00",216425,4.71,43.7,0.409,0.029,19.94,108.4365,20.88,21.74,25.4,0,110.8,13.19,21.70,5.7
"2010-10-04 01:02:30",216426,4.696,44.27,0.506,0.005,19.93,108.4374,20.88,21.73,25.48,0,110.8,13.19,21.71,6.3
"2010-10-04 01:03:00",216427,4.727,43.94,0.393,0.031,19.99,108.4374,20.88,21.74,25.57,0,110.8,13.19,21.71,5.9
"2010-10-04 01:03:30",216428,4.701,44.47,0.469,0.016,20.21,108.4374,20.88,21.74,25.27,0,110.8,13.19,21.71,6.5
"2010-10-04 01:04:00",216429,4.631,43.54,0.305,0.035,20.29,108.4413,20.89,21.77,25.12,0,110.8,13.19,21.72,5.5
"2010-10-04 01:04:30",216430,4.604,42.99,0.192,0.03,20.3,108.4658,20.95,21.79,24.99,0,110.8,13.2,21.78,5.0
"2010-10-04 01:05:00",216431,4.555,42.99,0.268,0.055,20.36,108.4711,20.97,21.81,24.79,0,110.8,13.2,21.79,5.0
"2010-10-04 01:05:30",216432,4.592,41.57,0.708,0.036,20.13,108.4779,20.99,21.83,24.74,0,110.8,13.2,21.81,3.6
"2010-10-04 01:06:00",216433,4.604,42.28,0.489,0.044,20.28,108.5021,21.05,21.86,24.7,0,110.8,13.2,21.87,4.3
"2010-10-04 01:06:30",216434,4.511,41.9,0.273,0.032,20.32,108.5049,21.06,21.89,24.56,0,110.8,13.2,21.88,3.9
"2010-10-04 01:07:00",216435,4.534,41.49,0.53,0.044,20.26,108.5153,21.08,21.91,24.44,0,110.8,13.2,21.91,3.5
"2010-10-04 01:07:30",216436,4.657,41.86,0.324,0.035,20.09,108.5384,21.14,21.94,24.38,0,110.8,13.2,21.97,3.9
"2010-10-04 01:08:00",216437,4.8,42.52,0.538,0.059,19.98,108.5386,21.14,21.95,24.36,0,110.8,13.2,21.97,4.5
"2010-10-04 01:08:30",216438,4.974,43.12,0.221,0.058,19.97,108.5386,21.14,21.99,24.42,0,110.8,13.2,21.97,5.1
"2010-10-04 01:09:00",216439,5.071,43.9,0.338,0.035,19.95,108.5405,21.15,21.98,24.44,0,110.8,13.2,21.97,5.9
"2010-10-04 01:09:30",216440,5.205,43.51,0.339,0.04,20.19,108.5399,21.14,22.02,24.43,0,110.8,13.2,21.97,5.5
"2010-10-04 01:10:00",216441,5.187,42.96,0.651,0.032,20.19,108.5402,21.15,22.01,24.44,0,110.8,13.2,21.97,5.0
"2010-10-04 01:10:30",216442,5.163,41.17,0.488,0.021,20.03,108.5426,21.15,21.99,24.51,0,110.8,13.2,21.98,3.2
"2010-10-04 01:11:00",216443,5.173,40.8,0.197,0.03,19.96,108.5204,21.1,22,24.61,0,110.8,13.2,21.92,2.8
"2010-10-04 01:11:30",216444,5.24,41.27,0.519,0.027,19.9,108.5125,21.07,21.98,24.55,0,110.8,13.2,21.90,3.3
"2010-10-04 01:12:00",216445,5.244,41.51,0.511,0.028,19.92,108.5171,21.09,21.97,24.6,0,110.8,13.2,21.91,3.5
"2010-10-04 01:12:30",216446,5.253,41.56,0.506,0.028,20.02,108.5198,21.09,21.96,24.57,0,110.8,13.2,21.92,3.6
"2010-10-04 01:13:00",216447,5.206,40.22,0.548,0.025,19.93,108.5205,21.1,21.95,24.6,0,110.8,13.2,21.92,2.2
"2010-10-04 01:13:30",216448,5.272,40.22,0.545,0.054,19.91,108.5178,21.09,21.94,24.58,0,110.8,13.2,21.91,2.2
"2010-10-04 01:14:00",216449,5.291,40.41,0.546,0.037,19.94,108.5074,21.06,21.94,24.66,0,110.8,13.2,21.89,2.4
"2010-10-04 01:14:30",216450,5.285,39.74,0.02,0.047,19.96,108.4939,21.03,21.92,24.64,0,110.8,13.2,21.85,1.7
"2010-10-04 01:15:00",216451,5.229,39.57,0.624,0.019,19.95,108.4946,21.03,21.91,24.63,0,110.8,13.2,21.85,1.6
"2010-10-04 01:15:30",216452,5.281,40.68,0.409,0.047,19.91,108.4965,21.03,21.93,24.6,0,110.8,13.2,21.86,2.7
"2010-10-04 01:16:00",216453,5.434,40.9,0.048,0.072,19.99,108.4968,21.03,21.9,24.73,0,110.8,13.2,21.86,2.9
"2010-10-04 01:16:30",216454,5.456,41.35,0.507,0.097,20.01,108.498,21.04,21.9,24.73,0,110.8,13.2,21.86,3.3
"2010-10-04 01:17:00",216455,5.545,41.1,0.424,0.043,20.06,108.4992,21.04,21.89,24.81,0,110.8,13.2,21.87,3.1
"2010-10-04 01:17:30",216456,5.549,40.89,0.861,0.046,20.02,108.4902,21.02,21.87,24.86,0,110.8,13.2,21.84,2.9
"2010-10-04 01:18:00",216457,5.643,43.62,0.714,0.034,20.03,108.4714,20.97,21.87,24.87,0,110.8,13.2,21.79,5.6
"2010-10-04 01:18:30",216458,5.71,44.92,0.458,0.022,19.97,108.4691,20.96,21.84,24.88,0,110.8,13.2,21.79,6.9
"2010-10-04 01:19:00",216459,5.711,45.8,0.205,0.043,19.91,108.4709,20.97,21.84,24.94,0,110.8,13.2,21.79,7.8
"2010-10-04 01:19:30",216460,5.608,44.52,0.418,0.054,19.87,108.4709,20.97,21.82,24.96,0,110.8,13.2,21.79,6.5
"2010-10-04 01:20:00",216461,5.692,45.75,1.381,0.166,19.89,108.4713,20.97,21.82,24.84,0,110.8,13.2,21.79,7.8
"2010-10-04 01:20:30",216462,5.732,48.17,1.053,0.094,19.91,108.4677,20.96,21.8,24.76,0,110.8,13.2,21.78,10.2
"2010-10-04 01:21:00",216463,5.799,50.88,0.45,0.05,20,108.4514,20.92,21.79,24.81,0,110.8,13.2,21.74,12.9
"2010-10-04 01:21:30",216464,5.82,51.26,0.525,0.068,20.03,108.4429,20.9,21.78,24.92,0,110.8,13.2,21.72,13.3
"2010-10-04 01:22:00",216465,5.733,50.99,0.501,0.055,19.96,108.4393,20.89,21.76,25,0,110.8,13.21,21.71,13.0
"2010-10-04 01:22:30",216466,5.515,49.68,0.618,0.033,20.02,108.4402,20.89,21.76,24.97,0,110.8,13.21,21.71,11.7
"2010-10-04 01:23:00",216467,5.422,48.58,0.524,0.064,20.06,108.4402,20.89,21.76,24.95,0,110.8,13.21,21.71,10.6
"2010-10-04 01:23:30",216468,5.279,48.43,0.596,0.044,19.91,108.4402,20.89,21.74,25.02,0,110.8,13.21,21.71,10.4
"2010-10-04 01:24:00",216469,5.293,48.27,0.485,0.063,19.92,108.4394,20.89,21.74,24.71,0,110.8,13.21,21.71,10.3
"2010-10-04 01:24:30",216470,5.372,47.9,0.617,0.083,20,108.4391,20.89,21.74,24.51,0,110.8,13.21,21.71,9.9
"2010-10-04 01:25:00",216471,5.257,46.27,0.66,0.055,20.08,108.4366,20.88,21.72,24.29,0,110.8,13.21,21.70,8.3
"2010-10-04 01:25:30",216472,5.192,46.19,0.627,0.108,20.04,108.4335,20.87,21.72,24.7,0,110.8,13.21,21.70,8.2
"2010-10-04 01:26:00",216473,5.075,45.83,0.052,0.05,20.04,108.4324,20.87,21.73,24.93,0,110.8,13.21,21.69,7.8
"2010-10-04 01:26:30",216474,4.985,45.45,0.504,0.032,19.97,108.4341,20.87,21.72,24.67,0,110.8,13.21,21.70,7.5
"2010-10-04 01:27:00",216475,4.915,44.73,0.271,0.05,19.96,108.4394,20.89,21.74,24.27,0,110.8,13.21,21.71,6.7
"2010-10-04 01:27:30",216476,4.857,44.39,0.476,0.028,19.91,108.4402,20.89,21.73,24.31,0,110.8,13.22,21.71,6.4
"2010-10-04 01:28:00",216477,4.908,44.73,0.193,0.059,19.92,108.4402,20.89,21.74,24.5,0,110.8,13.22,21.71,6.7
"2010-10-04 01:28:30",216478,4.867,45.19,0.714,0.049,19.92,108.4402,20.89,21.76,24.08,0,110.8,13.22,21.71,7.2
"2010-10-04 01:29:00",216479,4.91,45.9,0.717,0.048,19.96,108.4402,20.89,21.75,23.33,0,110.8,13.22,21.71,7.9
"2010-10-04 01:29:30",216480,4.867,46.04,0.823,0.049,19.92,108.4422,20.89,21.75,23.2,0,110.8,13.21,21.72,8.0
"2010-10-04 01:30:00",216481,4.986,46.96,0.658,0.046,19.93,108.4476,20.91,21.76,22.84,0,110.8,13.22,21.73,9.0
"2010-10-04 01:30:30",216482,5.019,47.5,0.517,0.019,19.92,108.4487,20.91,21.76,22.83,0,110.8,13.22,21.74,9.5
"2010-10-04 01:31:00",216483,5.027,47.96,0.264,0.033,19.9,108.4481,20.91,21.78,22.96,0,110.8,13.22,21.73,10.0
"2010-10-04 01:31:30",216484,5.042,47.5,0.645,0.04,19.92,108.4453,20.9,21.79,23.2,0,110.8,13.22,21.73,9.5
"2010-10-04 01:32:00",216485,5.014,51.15,1.083,0,19.95,108.4478,20.91,21.79,22.47,0,110.8,13.22,21.73,13.2
"2010-10-04 01:32:30",216486,5.034,52.98,0.449,0.036,20.02,108.4639,20.95,21.8,21.8,0,110.8,13.21,21.78,15.0
"2010-10-04 01:33:00",216487,4.995,53.65,0.973,0.044,20.08,108.474,20.98,21.81,21.46,0,110.8,13.21,21.80,15.7
"2010-10-04 01:33:30",216488,4.976,55.13,0.252,0.028,20.17,108.474,20.98,21.84,21.39,0,110.8,13.21,21.80,17.1
"2010-10-04 01:34:00",216489,5.053,55.54,0.452,0.062,20.17,108.4751,20.98,21.85,21.59,0,110.8,13.2,21.80,17.5
"2010-10-04 01:34:30",216490,5.243,55.93,0.69,0.031,20.04,108.4799,20.99,21.86,22.05,0,110.8,13.2,21.82,17.9
"2010-10-04 01:35:00",216491,5.323,56.17,1.051,0.055,19.93,108.4771,20.98,21.87,22.41,0,110.8,13.21,21.81,18.2
"2010-10-04 01:35:30",216492,5.431,56.61,0.779,0.052,19.91,108.4746,20.98,21.87,22.93,0,110.8,13.21,21.80,18.6
"2010-10-04 01:36:00",216493,5.294,57.18,0.517,0.022,20.02,108.474,20.98,21.87,22.4,0,110.8,13.21,21.80,19.2
"2010-10-04 01:36:30",216494,5.133,57.07,0.868,0.099,20.14,108.4777,20.99,21.87,21.75,0,110.8,13.21,21.81,19.1
"2010-10-04 01:37:00",216495,5.459,56.87,0.742,0.112,19.92,108.4771,20.98,21.87,23.15,0,110.8,13.21,21.81,18.9
"2010-10-04 01:37:30",216496,5.549,55.27,1.024,0.053,19.98,108.474,20.98,21.88,23.22,0,110.8,13.21,21.80,17.3
"2010-10-04 01:38:00",216497,5.553,56.35,1.104,0.065,20.02,108.474,20.98,21.86,23.18,0,110.8,13.22,21.80,18.3
"2010-10-04 01:38:30",216498,5.53,53.16,1.71,0.086,19.91,108.4743,20.98,21.86,23.36,0,110.8,13.22,21.80,15.2
"2010-10-04 01:39:00",216499,5.519,55.98,2.076,0.144,19.95,108.4667,20.96,21.85,23.38,0,110.8,13.22,21.78,18.0
"2010-10-04 01:39:30",216500,5.487,55.8,3.299,0.122,19.98,108.4501,20.91,21.83,23.42,0,110.8,13.22,21.74,17.8
"2010-10-04 01:40:00",216501,5.82,56.28,2.197,0.095,19.89,108.4442,20.9,21.83,23.58,0,110.8,13.22,21.72,18.3
"2010-10-04 01:40:30",216502,5.956,57.16,1.509,0.089,19.94,108.4405,20.89,21.82,23.58,0,110.8,13.22,21.71,19.2
"2010-10-04 01:41:00",216503,6.066,56.26,1.617,0.098,19.92,108.4415,20.89,21.81,23.73,0,110.8,13.22,21.72,18.3
"2010-10-04 01:41:30",216504,6.128,57.87,1.589,0.105,19.95,108.4409,20.89,21.8,23.74,0,110.8,13.22,21.72,19.9
"2010-10-04 01:42:00",216505,6.254,58.51,1.535,0.197,19.95,108.4335,20.87,21.79,23.72,0,110.8,13.22,21.70,20.5
"2010-10-04 01:42:30",216506,6.185,59.35,1.8,0.385,19.92,108.4195,20.84,21.77,23.77,0,110.8,13.22,21.66,21.3
"2010-10-04 01:43:00",216507,5.975,59.05,2.895,0.121,19.95,108.4104,20.81,21.75,23.49,0,110.8,13.22,21.64,21.0
"2010-10-04 01:43:30",216508,6.141,60.15,2.234,0.199,19.91,108.4101,20.81,21.76,23.46,0,110.8,13.22,21.64,22.2
"2010-10-04 01:44:00",216509,6.095,60.63,1.968,0.262,19.94,108.411,20.81,21.76,23.35,0,110.8,13.22,21.64,22.6
"2010-10-04 01:44:30",216510,6.292,55.93,1.999,0.164,19.92,108.4114,20.82,21.74,23.58,0,110.8,13.22,21.64,17.9
"2010-10-04 01:45:00",216511,6.251,52.25,2.089,0.208,19.9,108.4114,20.82,21.72,23.89,0,110.8,13.22,21.64,14.2
"2010-10-04 01:45:30",216512,6.231,52.09,2.226,0.155,19.82,108.4091,20.81,21.71,24.01,0,110.8,13.22,21.63,14.1
"2010-10-04 01:46:00",216513,6.163,51.81,2.222,0.128,19.81,108.3886,20.76,21.7,24,0,110.8,13.22,21.58,13.8
"2010-10-04 01:46:30",216514,6.221,55.38,2.436,0.12,19.88,108.3796,20.73,21.68,23.98,0,110.8,13.22,21.56,17.4
"2010-10-04 01:47:00",216515,6.513,54.28,2.852,0.252,19.82,108.3788,20.73,21.67,23.99,0,110.8,13.22,21.56,16.3
"2010-10-04 01:47:30",216516,6.418,49.7,3.267,0.217,19.87,108.3782,20.73,21.68,24.1,0,110.8,13.22,21.55,11.7
"2010-10-04 01:48:00",216517,6.516,49.33,2.043,0.277,19.88,108.3806,20.74,21.67,23.96,0,110.8,13.22,21.56,11.3
"2010-10-04 01:48:30",216518,6.6,48.53,2.59,0.211,19.78,108.3806,20.74,21.66,24.51,0,110.8,13.22,21.56,10.5
"2010-10-04 01:49:00",216519,6.41,49.35,2.978,0.196,19.83,108.3754,20.72,21.64,24.31,0,110.8,13.22,21.55,11.3